Weather in Yumurchen

Russia / Zabaykalsky Krai     53°24′09″N   114°12′31″E
temp.,
°C
wind,
m/s
gust,
m/s
humid.,
%
clouds,
%
prec.,
mm/h
press.,
hPa
HPBL,
m
14 may, fri
fri1400:00+1n129994 1.3 101076
03:00−1n239664 1.3 1011140
06:00−2nnw119884 0.1 101335
09:00+1nnw3690100 0.6 1012630
12:00+4n467298 0.7 10111224
15:00+7n465984 1.3 10101530
18:00+8nne365285 0.4 10091591
21:00+3n11745 0.5 101210
15 may, sat
sat1500:00+1w11835 0.0 101410
03:00−1w11865 0.0 101510
06:00−1sw11850 0.0 101610
09:00+7w25490 0.0 1013646
12:00+12w46250 0.0 10091992
15:00+15wnw58195 0.0 10063142
18:00+15w572091 0.0 10043227
21:00+8w612425 0.0 1007874
16 may, sun
sun1600:00+3wsw39595 0.0 1009257
03:00+1sw227013 0.0 100940
06:00+2wsw3106398 0.0 1008349
09:00+7w61055100 0.0 1005874
12:00+12w7114499 0.0 10022104
15:00+11w81458100 0.5 10001898
18:00+14nw7133515 0.3 10002591
21:00+7nnw510425 0.3 1005802
17 may, mon
mon1700:00+2nw244772 0.0 100990
03:00+1sw1153100 0.0 100916
06:000s1156100 0.0 100813
09:00+5se2539100 0.0 1005743
12:00+5ssw3567100 0.1 10041028
15:00+8wsw3557100 0.1 10011419
18:00+10sw3553100 0.0 9981494
21:00+6sse238282 0.1 99858
18 may, tue
tue1800:00+3ssw3587100 0.0 999118
03:000ssw24975 0.0 99984
06:000ssw269398 0.0 998169
09:00+9w6106197 0.0 9941335
12:00+12w71231100 0.1 9923206
15:00+12wnw7132299 0.2 9943486
18:00+11wnw7101974 0.0 9973270
21:00+6wnw49305 0.0 1001414